• In Moldova, Republic
  • List of Countries
  • For 7 days
  • Water Temperature
  • Satellite Maps
  • Weather Map
  • Weather Widgets
  • user-avatar
    Login

    Hourly Weather Saurimo

    Today, 20 January, Friday

    Time Temperature Precipitation Wind Pressure Humidity
    00:00 +22°C° 0 mm 1 mps 670 mmHg 81%
    01:00 +22°C° 0 mm 1 mps 670 mmHg 82%
    02:00 +22°C° 0 mm 1 mps 670 mmHg 84%
    03:00 +22°C° 0 mm 1 mps 670 mmHg 86%
    04:00 +21°C° 0 mm 1 mps 670 mmHg 87%
    05:00 +21°C° 0 mm 2 mps 670 mmHg 86%
    06:00 +21°C° 0 mm 2 mps 671 mmHg 85%
    07:00 +23°C° 0 mm 2 mps 671 mmHg 83%
    08:00 +24°C° 0 mm 3 mps 671 mmHg 77%
    09:00 +26°C° 0 mm 3 mps 671 mmHg 71%
    10:00 +27°C° 0 mm 3 mps 671 mmHg 65%
    11:00 +27°C° 0.1 mm 3 mps 671 mmHg 63%
    12:00 +28°C° 0.1 mm 3 mps 671 mmHg 60%
    13:00 +28°C° 0.1 mm 3 mps 670 mmHg 58%
    14:00 +28°C° 0.1 mm 3 mps 670 mmHg 60%
    15:00 +28°C° 0.1 mm 2 mps 669 mmHg 62%
    16:00 +27°C° 0.1 mm 2 mps 669 mmHg 64%
    17:00 +26°C° 0 mm 2 mps 669 mmHg 69%
    18:00 +25°C° 0 mm 1 mps 669 mmHg 74%
    19:00 +23°C° 0 mm 1 mps 668 mmHg 79%
    20:00 +23°C° 0 mm 1 mps 669 mmHg 81%
    21:00 +23°C° 0 mm 1 mps 669 mmHg 82%
    22:00 +22°C° 0 mm 1 mps 669 mmHg 84%
    23:00 +22°C° 0 mm 1 mps 669 mmHg 86%

    Tomorrow, 21 January, Saturday

    Time Temperature Precipitation Wind Pressure Humidity
    00:00 +21°C° 0 mm 1 mps 669 mmHg 87%
    01:00 +21°C° 0 mm 1 mps 669 mmHg 89%
    02:00 +20°C° 0.5 mm 1 mps 669 mmHg 90%
    03:00 +20°C° 0.5 mm 1 mps 669 mmHg 91%
    04:00 +20°C° 0.5 mm 1 mps 668 mmHg 93%
    05:00 +21°C° 0 mm 1 mps 669 mmHg 90%
    06:00 +22°C° 0 mm 1 mps 669 mmHg 88%
    07:00 +22°C° 0 mm 1 mps 670 mmHg 86%
    08:00 +25°C° 0.1 mm 1 mps 670 mmHg 76%
    09:00 +27°C° 0.1 mm 2 mps 671 mmHg 66%
    10:00 +29°C° 0.1 mm 2 mps 671 mmHg 57%
    11:00 +30°C° 0.2 mm 2 mps 671 mmHg 54%
    12:00 +31°C° 0.2 mm 2 mps 670 mmHg 50%
    13:00 +31°C° 0.2 mm 2 mps 670 mmHg 47%
    14:00 +30°C° 0.3 mm 2 mps 669 mmHg 54%
    15:00 +30°C° 0.3 mm 2 mps 669 mmHg 61%
    16:00 +29°C° 0.3 mm 2 mps 668 mmHg 68%
    17:00 +27°C° 0.3 mm 2 mps 668 mmHg 75%
    18:00 +25°C° 0.3 mm 1 mps 668 mmHg 81%
    19:00 +23°C° 0.3 mm 1 mps 668 mmHg 87%
    20:00 +23°C° 0 mm 1 mps 668 mmHg 88%
    21:00 +22°C° 0 mm 1 mps 669 mmHg 89%
    22:00 +22°C° 0 mm 1 mps 669 mmHg 90%
    23:00 +22°C° 0.3 mm 1 mps 669 mmHg 91%

    Day after tomorrow, 22 January, Sunday

    Time Temperature Precipitation Wind Pressure Humidity
    00:00 +22°C° 0.3 mm 1 mps 669 mmHg 92%
    01:00 +21°C° 0.3 mm 1 mps 668 mmHg 93%
    02:00 +21°C° 0.5 mm 1 mps 668 mmHg 93%
    03:00 +21°C° 0.5 mm 1 mps 668 mmHg 94%
    04:00 +20°C° 0.5 mm 1 mps 668 mmHg 95%
    05:00 +21°C° 0.2 mm 1 mps 668 mmHg 94%
    06:00 +21°C° 0.2 mm 1 mps 669 mmHg 93%
    07:00 +22°C° 0.2 mm 1 mps 670 mmHg 92%
    08:00 +24°C° 0.1 mm 2 mps 670 mmHg 83%
    09:00 +25°C° 0.1 mm 2 mps 671 mmHg 74%
    10:00 +27°C° 0.1 mm 2 mps 672 mmHg 65%
    11:00 +28°C° 0.2 mm 3 mps 671 mmHg 62%
    12:00 +29°C° 0.2 mm 3 mps 670 mmHg 59%
    13:00 +29°C° 0.2 mm 3 mps 670 mmHg 57%
    14:00 +29°C° 0.1 mm 3 mps 669 mmHg 58%
    15:00 +29°C° 0.1 mm 2 mps 669 mmHg 59%
    16:00 +28°C° 0.1 mm 2 mps 668 mmHg 60%
    17:00 +27°C° 0.1 mm 2 mps 669 mmHg 66%
    18:00 +25°C° 0.1 mm 2 mps 669 mmHg 71%
    19:00 +23°C° 0.1 mm 2 mps 669 mmHg 77%
    20:00 +23°C° 0.6 mm 2 mps 670 mmHg 80%
    21:00 +21°C° 0.6 mm 2 mps 670 mmHg 82%
    22:00 +20°C° 0.6 mm 2 mps 670 mmHg 85%
    23:00 +20°C° 0.1 mm 2 mps 670 mmHg 86%

    23 January, Monday

    Time Temperature Precipitation Wind Pressure Humidity
    00:00 +21°C° 0.1 mm 1 mps 669 mmHg 86%
    01:00 +20°C° 0.1 mm 1 mps 669 mmHg 87%
    02:00 +20°C° 0 mm 1 mps 668 mmHg 87%
    03:00 +20°C° 0 mm 1 mps 668 mmHg 87%
    04:00 +19°C° 0 mm 1 mps 668 mmHg 86%
    05:00 +20°C° 0 mm 1 mps 669 mmHg 84%
    06:00 +21°C° 0 mm 1 mps 670 mmHg 81%
    07:00 +21°C° 0 mm 1 mps 671 mmHg 78%
    08:00 +24°C° 0 mm 2 mps 671 mmHg 69%
    09:00 +26°C° 0 mm 3 mps 671 mmHg 60%
    10:00 +28°C° 0 mm 3 mps 672 mmHg 51%
    11:00 +29°C° 0 mm 3 mps 671 mmHg 48%
    12:00 +30°C° 0 mm 3 mps 671 mmHg 44%
    13:00 +32°C° 0 mm 4 mps 670 mmHg 40%
    14:00 +30°C° 0.4 mm 3 mps 670 mmHg 48%
    15:00 +29°C° 0.4 mm 3 mps 670 mmHg 56%
    16:00 +28°C° 0.4 mm 3 mps 670 mmHg 63%
    17:00 +26°C° 0.3 mm 3 mps 670 mmHg 73%
    18:00 +24°C° 0.3 mm 3 mps 670 mmHg 83%
    19:00 +21°C° 0.3 mm 3 mps 671 mmHg 93%
    20:00 +21°C° 0.1 mm 3 mps 671 mmHg 95%
    21:00 +20°C° 0.1 mm 2 mps 671 mmHg 96%
    22:00 +20°C° 0.1 mm 2 mps 671 mmHg 97%
    23:00 +20°C° 0 mm 2 mps 671 mmHg 96%

    24 January, Tuesday

    Time Temperature Precipitation Wind Pressure Humidity
    00:00 +19°C° 0 mm 2 mps 670 mmHg 95%
    01:00 +20°C° 0 mm 1 mps 669 mmHg 94%
    02:00 +20°C° 0 mm 1 mps 669 mmHg 93%
    03:00 +19°C° 0 mm 1 mps 669 mmHg 93%
    04:00 +19°C° 0 mm 1 mps 669 mmHg 92%
    05:00 +20°C° 0 mm 1 mps 670 mmHg 90%
    06:00 +20°C° 0 mm 1 mps 670 mmHg 87%
    07:00 +21°C° 0 mm 1 mps 671 mmHg 85%
    08:00 +23°C° 0 mm 1 mps 672 mmHg 73%
    09:00 +26°C° 0 mm 2 mps 672 mmHg 60%
    10:00 +29°C° 0 mm 3 mps 673 mmHg 48%
    11:00 +30°C° 0 mm 3 mps 672 mmHg 44%
    12:00 +32°C° 0 mm 4 mps 671 mmHg 40%
    13:00 +33°C° 0 mm 4 mps 671 mmHg 36%
    14:00 +33°C° 0 mm 4 mps 671 mmHg 38%
    15:00 +31°C° 0 mm 3 mps 670 mmHg 41%
    16:00 +31°C° 0 mm 3 mps 670 mmHg 43%
    17:00 +29°C° 0 mm 3 mps 670 mmHg 51%
    18:00 +26°C° 0 mm 2 mps 670 mmHg 59%
    19:00 +24°C° 0 mm 2 mps 670 mmHg 66%
    20:00 +23°C° 0 mm 2 mps 670 mmHg 67%
    21:00 +23°C° 0 mm 2 mps 670 mmHg 69%
    22:00 +21°C° 0 mm 2 mps 671 mmHg 70%
    23:00 +20°C° 0 mm 2 mps 670 mmHg 72%

    25 January, Wednesday

    Time Temperature Precipitation Wind Pressure Humidity
    00:00 +21°C° 0 mm 1 mps 670 mmHg 74%
    01:00 +20°C° 0 mm 1 mps 669 mmHg 76%
    02:00 +20°C° 0 mm 1 mps 669 mmHg 78%
    03:00 +20°C° 0 mm 1 mps 669 mmHg 80%
    04:00 +19°C° 0 mm 1 mps 669 mmHg 82%
    05:00 +20°C° 0 mm 1 mps 670 mmHg 80%
    06:00 +21°C° 0 mm 1 mps 671 mmHg 78%
    07:00 +22°C° 0 mm 1 mps 671 mmHg 76%
    08:00 +24°C° 0 mm 1 mps 672 mmHg 66%
    09:00 +27°C° 0 mm 2 mps 672 mmHg 57%
    10:00 +30°C° 0 mm 2 mps 673 mmHg 47%
    11:00 +31°C° 0 mm 2 mps 672 mmHg 44%
    12:00 +33°C° 0 mm 3 mps 672 mmHg 40%
    13:00 +34°C° 0 mm 3 mps 671 mmHg 36%
    14:00 +33°C° 0 mm 3 mps 671 mmHg 38%
    15:00 +33°C° 0 mm 3 mps 670 mmHg 40%
    16:00 +32°C° 0 mm 2 mps 670 mmHg 42%
    17:00 +29°C° 0 mm 2 mps 670 mmHg 49%
    18:00 +27°C° 0 mm 2 mps 670 mmHg 57%
    19:00 +24°C° 0 mm 2 mps 670 mmHg 65%
    20:00 +24°C° 0.1 mm 2 mps 670 mmHg 67%
    21:00 +23°C° 0.1 mm 2 mps 670 mmHg 69%
    22:00 +21°C° 0.1 mm 2 mps 671 mmHg 71%
    23:00 +21°C° 0 mm 2 mps 670 mmHg 74%
    Show more